Simultaneous Nadir Overpasses (SNOs) Predictions

Prediction of SNOs between GOES-16 and NPP Satellite Orbit:

Table of predicted SNOs for the next 14.0 days since TLE Epoch: 9/24/2022
Index Date Time (GOES-16) GOES-16 Lat,Lon NPP Lat,Lon Distance(km) Time Diff (sec)
1 09/25/2022 18:27:41 -0.04, -75.21 -0.18, -75.84 71.71 80
2 09/26/2022 18:11:36 -0.05, -75.21 0.83, -71.30 445.48 80
3 09/28/2022 06:33:25 0.04, -75.21 0.33, -76.58 154.82 80
4 09/29/2022 06:12:00 0.05, -75.22 -0.68, -72.04 362.42 80
5 09/30/2022 18:33:56 -0.04, -75.24 -0.53, -77.34 240.02 80
6 10/01/2022 18:17:52 -0.04, -75.25 0.49, -72.81 277.22 80
7 10/03/2022 06:39:40 0.03, -75.25 0.67, -78.09 322.98 80
8 10/04/2022 06:18:16 0.03, -75.26 -0.35, -73.56 194.33 80
9 10/05/2022 18:40:12 -0.02, -75.29 -0.85, -78.86 407.64 80
10 10/06/2022 18:24:08 -0.02, -75.30 0.17, -74.33 110.44 80
